Regional Weather Roundup
Issued by NWS

Home | Current Version | Previous Version | Text Only | Print | Product List | Glossary Off
Versions: 1 2 3 4 5 6 7 8 9 10 11 12 13 14 15 16 17 18 19 20 21 22 23 24 25 26 27 28 29 30 31 32 33 34 35 36 37 38 39 40 41 42 43 44 45 46 47 48 49 50

000
ASUS43 KFSD 242302
RWRSD

WEATHER ROUNDUP FOR SOUTH DAKOTA
NATIONAL WEATHER SERVICE SIOUX FALLS SD
600 PM CDT THU JUL 24 2014

NOTE: "FAIR" INDICATES FEW OR NO CLOUDS BELOW 12,000 FEET WITH NO
SIGNIFICANT WEATHER AND/OR OBSTRUCTIONS TO VISIBILITY.


SDZ001>005-009-010-012>017-250000-
NORTHWEST AND NORTH CENTRAL SOUTH DAKOTA

CITY           SKY/WX    TMP DP  RH WIND       PRES   REMARKS
BUFFALO          N/A     88  67  49 E12       29.65F
FAITH            N/A     93  66  40 SE8       29.70F HX  96
MOBRIDGE       SUNNY     84  69  60 SE22G32   29.67F
$$

SDZ012>016-024>037-041>051-057-063-072>074-250000-
SOUTHWEST AND SOUTH CENTRAL SOUTH DAKOTA

CITY           SKY/WX    TMP DP  RH WIND       PRES   REMARKS
RAPID CTY ARPT PTSUNNY   90  72  55 CALM      29.74F HX  97
PIERRE         SUNNY     93  69  45 SE26G36   29.63F HX  98
CUSTER         PTSUNNY   90  38  16 W10G21    29.96F
ELLSWORTH AFB  CLOUDY    91  68  47 SW3       29.74F
PHILIP         MOSUNNY  105  58  21 VRB5      29.64F HX 105
PINE RIDGE     LGT RAIN  82  62  50 SW21      29.77S
WINNER         FAIR      98  68  37 S15G29    29.68F HX 103
$$

SDZ004>011-016>023-039-040-250000-
NORTHEAST SOUTH DAKOTA

CITY           SKY/WX    TMP DP  RH WIND       PRES   REMARKS
ABERDEEN       SUNNY     78  61  55 S25G36    29.79F
WATERTOWN      PTSUNNY   71  60  68 S23G32    29.86F
SISSETON         N/A     72  62  71 S17G25    29.84F
$$

SDZ017-020-022-023-036>040-048>070-250000-
SOUTHEAST SOUTH DAKOTA

CITY           SKY/WX    TMP DP  RH WIND       PRES   REMARKS
SIOUX FALLS    PTSUNNY   71  59  65 S20G32    29.90F
HURON          SUNNY     75  63  66 SE16G31   29.78F
CHAMBERLAIN    SUNNY     89  69  52 SE25G36   29.71F
MITCHELL       SUNNY     78  64  61 SE32G41   29.82F
YANKTON        PTSUNNY   75  64  69 SE21G32   29.90F
$$

ABBREVIATIONS USED IN REMARKS
   TC - TEMPERATURE IN CELSIUS
  WCI - WIND CHILL INDEX
   HX - HEAT INDEX
  VSB - VISIBILITY



USA.gov is the U.S. government's official web portal to all federal, state and local government web resources and services.